Regional Weather Roundup
Issued by NWS State College, PA

Home | Current Version | Previous Version | Text Only | Print | Product List | Glossary On
Versions: 1 2 3 4 5 6 7 8 9 10 11 12 13 14 15 16 17 18 19 20 21 22 23 24 25 26 27 28 29 30 31 32 33 34 35 36 37 38 39 40 41 42 43 44 45 46 47 48 49 50
000
ASUS41 KCTP 190610
RWRCTP

REGIONAL WEATHER ROUNDUP
NATIONAL WEATHER SERVICE STATE COLLEGE PA
200 AM EDT THU APR 19 2018

Note: "fair" indicates few or no clouds below 12,000 feet with no
significant weather and/or obstructions to visibility.

* = STATION THAT DOES NOT REPORT PRECIPITATION /E.G. RAIN...SNOW...ETC/
    THUNDER OR FOG.

PAZ002>004-007>009-013>016-020>023-029>032-190700-
WESTERN PENNSYLVANIA

CITY           SKY/WX    TMP DP  RH WIND       PRES   REMARKS
ERIE           CLOUDY    34  30  85 N6        29.78F
MEADVILLE      CLOUDY    32  28  85 N7        29.72F
FRANKLIN*      LGT RAIN  33  31  92 N7        29.71F
NEW CASTLE     LGT RAIN  37  36  96 NW5       29.74S
BEAVER COUNTY  NOT AVBL
BUTLER*        LGT RAIN  39  36  89 E3        29.72F
PITTSBURGH INT LGT RAIN  42  40  92 N6        29.72S
PITTSBURGH     LGT RAIN  42  41  96 NW3       29.72S FOG
INDIANA*       CLOUDY    43  41  93 CALM      29.73F FOG
LATROBE        CLOUDY    43  43 100 CALM      29.72F
WASHINGTON CO* LGT RAIN  43  41  93 CALM      29.75F
$$

PAZ004>006-010>012-017>019-024>028-033>037-041-042-045-046-049>053-190700-
CENTRAL PENNSYLVANIA

CITY           SKY/WX    TMP DP  RH WIND       PRES   REMARKS
BRADFORD       CLOUDY    32  27  81 NW5       29.72R
DUBOIS         MIX PCPN  34  33  96 N6        29.70S FOG
CLEARFIELD     LGT RAIN  37  34  89 NE3       29.71F
JOHNSTOWN      LGT RAIN  41  38  89 NE5       29.67S
ALTOONA        LGT RAIN  44  39  82 N5        29.71R
STATE COLLEGE  RAIN      40  33  76 E3        29.71R
WILLIAMSPORT   CLOUDY    42  32  67 N7        29.72R
SELINSGROVE    CLOUDY    46  30  53 NE6       29.69F
FT INDIANTOWN  CLOUDY    48  33  57 NE5       29.68F
CAPITAL CITY   CLOUDY    51  35  54 CALM      29.69S
HARRISBURG     CLOUDY    49  37  63 CALM      29.66F
YORK           MOCLDY    48  36  63 N6        29.66F
$$

PAZ038>040-043-044-047-048-054-055-060>062-067>071-190700-
EASTERN PENNSYLVANIA

CITY           SKY/WX    TMP DP  RH WIND       PRES   REMARKS
SCRANTON       CLOUDY    40  31  70 NE5       29.69F
MOUNT POCONO   CLOUDY    37  29  72 N7        29.66F
ALLENTOWN      CLOUDY    48  31  51 E5        29.73S
QUAKERTOWN*    MOCLDY    43  39  87 CALM      29.72R HAZE
READING        LGT RAIN  46  41  82 VRB5      29.68F
LANCASTER      CLOUDY    47  36  65 E7        29.66F
COATESVILLE    MOCLDY    46  36  66 E9G15     29.68F
POTTSTOWN      CLOUDY    47  34  60 E5        29.72F
BLUE BELL      CLOUDY    46  34  61 NE3       29.73F
DOYLESTOWN     CLOUDY    46  36  68 W3        29.73R
WILLOW GROVE   NOT AVBL
NORTH PHILA    CLOUDY    51  37  58 E6        29.72F
PHILADELPHIA   CLOUDY    49  38  65 E8        29.70F
$$



USA.gov is the U.S. government's official web portal to all federal, state and local government web resources and services.